Theta_e
321 318 316 314 313 313 312 312 312 313 313 306 305 303 302 302 301 301 302 299 299 298 298 297 297 300 301 302 302 302 302 301 301 302 303 304 303 303
315 315 312 310 310 310 311 311 311 311 312 305 301 300 300 300 299 300 300 299 300 299 298 296 298 300 300 301 301 300 300 299 300 300 301 301 301 301
311 310 310 310 311 311 311 311 311 309 308 300 300 299 299 300 300 299 299 299 298 298 297 297 297 298 298 298 298 298 299 299 299 299 300 300 300 300
310 311 311 311 311 311 311 308 305 303 303 299 298 298 299 298 298 299 298 297 296 295 295 296 296 297 297 298 298 297 297 297 297 298 298 299 299 299
311 311 311 310 308 304 302 300 299 299 299 299 298 298 299 299 298 296 296 295 296 296 296 296 296 296 297 297 297 296 296 296 296 297 298 298 299 299
308 308 307 304 302 301 300 299 298 298 299 299 299 299 298 298 296 296 296 297 297 297 297 297 297 297 297 296 296 296 295 295 296 296 297 297 297 298
304 304 302 301 300 299 298 298 298 299 299 299 299 298 297 297 296 297 297 297 297 297 297 296 296 295 295 295 295 295 294 295 296 296 296 296 296 298
299 299 299 301 301 300 300 300 299 299 299 298 297 297 297 296 297 295 296 297 297 297 295 295 295 295 295 295 294 294 294 295 296 295 294 294 294 296
301 301 301 301 302 300 300 298 297 295 296 296 297 297 297 295 294 294 295 296 296 295 294 294 294 294 294 293 294 293 293 294 294 293 293 293 293 294
299 299 299 299 298 299 299 298 296 295 296 296 295 294 294 294 294 293 294 294 294 295 293 294 294 293 292 292 293 292 292 292 292 292 292 292 292 292
296 296 296 296 295 294 296 296 296 296 295 294 293 292 292 291 291 291 293 293 295 294 293 291 292 291 291 293 293 292 291 291 291 291 291 291 291 292
294 294 293 295 294 296 296 296 296 295 294 293 292 292 292 292 290 291 292 293 293 293 291 290 290 289 290 291 290 290 291 291 291 291 291 291 291 290
295 295 295 294 296 296 296 296 296 294 293 292 292 292 292 292 292 291 291 291 291 290 291 290 289 288 288 289 289 289 290 289 290 290 290 290 289 290
295 294 294 294 294 294 294 295 294 293 292 291 291 291 291 291 291 291 290 290 290 290 290 290 289 289 289 289 289 288 288 289 290 290 290 290 290 290
294 293 292 292 291 291 291 292 292 291 291 290 290 290 290 290 290 290 290 290 290 290 290 289 289 288 289 288 288 289 289 289 289 290 289 289 289 289
292 292 291 291 290 290 290 292 291 290 290 290 291 290 290 290 290 290 290 290 290 290 290 290 289 289 289 289 289 289 289 289 290 290 290 290 289 289
293 292 291 291 290 290 290 290 290 290 290 291 290 290 290 291 291 289 289 290 290 290 289 289 289 289 289 289 289 290 290 291 291 290 290 290 289 289
292 292 291 291 290 289 289 289 290 290 290 290 290 290 290 290 290 289 289 289 289 289 289 290 290 290 290 290 291 291 291 291 290 290 290 290 289 289
291 292 291 290 290 289 289 290 290 290 290 290 290 289 289 289 290 290 289 289 289 288 288 289 289 290 290 291 290 290 290 290 289 289 290 291 290 290
291 290 290 289 289 289 289 290 290 290 289 289 289 290 289 289 289 289 289 288 289 289 289 289 289 289 290 290 290 289 289 289 290 290 291 291 291 290
291 290 289 289 289 289 289 288 288 288 288 289 288 288 288 289 289 288 288 289 289 289 288 289 289 289 289 289 289 289 290 289 290 290 290 291 291 290
291 290 289 289 289 288 288 288 287 287 287 287 287 287 287 287 288 288 288 288 288 288 289 288 288 289 289 288 289 289 289 290 291 291 291 291 291 291
290 289 289 288 288 288 287 287 287 287 286 287 287 287 287 287 288 288 287 287 287 288 288 288 288 288 288 288 289 289 290 290 291 291 292 292 292 292
Wind_Speed
9 7 5 7 8 9 11 8 6 2 2 2 5 5 4 5 5 5 3 2 5 7 9 12 14 13 13 13 14 15 16 16 16 16 16 17 18 19
8 10 9 9 10 8 5 2 6 7 3 5 6 7 7 4 3 1 3 5 9 12 13 14 14 13 13 13 14 14 15 15 16 16 17 18 19 20
14 16 12 6 1 4 9 10 12 10 7 3 6 7 4 5 5 4 4 4 5 8 12 11 13 13 13 13 13 13 12 13 14 15 16 17 18 19
15 12 10 9 9 10 11 10 10 9 7 7 7 7 7 6 4 6 6 6 8 8 9 11 11 10 9 9 11 12 13 13 15 15 15 17 18 18
9 8 8 9 9 9 10 10 8 6 5 6 5 5 3 4 5 6 7 8 7 8 8 8 7 9 11 13 13 13 12 14 14 14 16 17 18 18
8 9 9 10 12 13 11 10 8 6 6 6 5 4 4 5 6 6 6 7 9 8 7 9 10 11 12 12 12 11 10 12 14 15 16 17 18 19
8 8 9 9 9 9 8 7 5 3 3 3 3 3 5 4 4 5 9 9 10 7 7 10 11 11 9 8 7 10 13 12 12 11 13 15 17 19
12 10 11 9 8 7 7 5 4 2 2 2 2 5 6 4 2 5 8 9 7 5 9 13 8 8 7 8 10 10 12 11 9 11 15 16 18 19
10 9 8 8 6 5 6 4 2 1 3 1 5 4 3 2 4 6 8 10 11 11 9 10 5 8 9 9 10 10 11 10 13 16 19 20 20 20
7 6 5 6 6 5 5 4 3 0 1 0 1 2 3 4 5 7 11 12 12 7 6 6 9 11 14 12 7 9 12 14 13 16 18 19 21 21
5 4 4 5 6 8 5 6 5 4 2 3 3 7 9 10 10 8 10 7 8 4 3 7 9 15 12 6 3 11 13 15 15 16 18 18 18 20
4 2 6 3 2 3 6 5 4 5 3 2 5 7 6 5 4 1 6 7 6 6 4 9 10 13 7 5 13 15 20 16 17 19 18 16 14 18
4 3 3 2 1 2 4 2 2 7 4 2 5 3 3 2 1 2 3 4 4 4 8 9 8 9 8 13 16 21 17 22 20 20 17 15 18 15
4 3 3 3 4 3 0 1 5 4 1 4 3 3 4 3 4 5 6 7 7 9 11 10 10 12 12 15 14 18 23 20 20 19 16 16 17 15
3 3 1 2 5 5 6 4 4 1 1 2 4 4 4 5 7 8 9 9 10 11 10 11 14 14 13 15 18 20 21 22 16 12 20 19 18 17
1 2 1 2 4 4 4 5 2 1 3 5 6 5 5 7 9 8 9 11 12 11 11 12 12 12 16 18 19 20 21 13 21 18 19 18 19 19
4 2 3 2 2 1 2 2 3 4 5 4 4 6 7 7 8 8 10 11 10 13 15 16 14 14 17 21 22 21 20 18 17 18 17 19 18 18
3 4 4 4 4 3 4 5 5 6 6 6 7 7 7 8 9 9 10 9 11 13 15 14 16 16 16 18 16 17 15 17 19 18 22 19 20 19
3 3 4 4 5 5 5 6 7 7 7 7 7 8 9 9 9 9 9 10 12 13 15 14 18 15 12 7 14 12 18 19 22 21 20 18 18 23
6 5 6 5 6 6 5 6 7 7 7 8 9 9 8 10 11 10 10 13 12 14 15 15 13 15 14 13 19 24 19 19 18 20 22 20 22 22
9 7 6 6 6 6 6 7 6 8 7 7 7 8 9 9 10 12 13 13 15 13 14 15 16 17 18 20 16 20 17 20 19 20 21 20 18 15
7 7 7 7 6 6 6 6 6 7 8 9 9 9 10 10 12 12 11 12 16 16 16 17 17 16 15 16 18 21 21 21 19 19 18 19 19 7
8 7 7 8 7 7 7 7 6 6 7 9 9 9 9 10 10 10 13 16 16 15 16 17 16 17 17 17 19 19 20 20 19 21 18 16 16 17
Wind_Direction
209 193 161 141 135 132 121 97 57 326 251 190 239 244 232 219 176 168 205 269 287 291 296 296 298 307 311 310 312 314 314 316 320 320 319 315 317 317
148 143 133 136 124 106 66 17 266 256 257 236 222 208 207 211 188 142 275 315 314 302 298 299 303 308 306 305 306 309 312 315 316 316 314 314 314 313
148 138 128 128 77 314 299 285 266 250 227 199 196 186 164 192 225 253 288 294 272 293 302 299 302 300 300 301 303 308 313 316 316 318 318 318 316 315
163 187 210 223 251 262 259 237 214 198 184 165 170 181 207 222 269 290 271 287 281 288 289 303 308 302 309 313 314 314 315 316 320 321 321 317 314 315
184 194 218 231 223 201 178 166 152 134 135 157 153 179 203 244 258 294 301 295 295 294 300 303 305 311 306 311 312 310 313 320 321 322 322 316 316 311
186 194 192 190 183 174 169 160 149 136 128 140 141 183 216 251 304 306 307 305 306 303 301 309 310 301 303 306 310 307 316 324 320 320 318 320 320 309
150 153 157 161 163 162 161 150 139 124 132 167 186 214 253 255 292 309 305 318 309 297 302 307 310 307 307 312 317 327 325 318 320 326 328 328 321 332
119 126 129 133 133 135 136 134 139 151 201 259 291 269 268 268 313 331 314 300 312 323 328 312 303 309 317 322 317 322 319 329 321 326 326 330 320 326
125 128 128 139 141 142 128 117 144 209 223 2 286 307 325 330 307 295 307 309 303 302 303 297 318 328 330 322 322 316 337 327 315 316 321 321 320 319
132 141 152 171 184 178 198 209 222 157 96 5 6 329 303 282 295 295 294 289 288 264 320 288 334 329 323 323 301 334 341 327 321 319 319 320 318 316
125 140 185 201 220 211 210 222 210 180 166 246 281 305 289 285 279 279 282 293 295 310 15 340 338 332 319 329 2 332 335 325 319 319 321 321 322 319
154 175 185 179 205 224 226 218 232 218 207 254 323 325 334 295 356 274 306 306 339 292 26 355 341 354 328 307 330 335 325 326 325 323 321 319 317 317
177 185 158 97 45 161 184 226 233 175 203 266 291 280 261 246 263 323 335 329 319 295 317 332 315 328 315 309 316 323 330 329 328 324 319 313 323 316
174 163 116 121 97 83 326 240 228 236 229 283 256 259 277 292 307 309 307 303 293 293 300 306 299 303 294 300 304 316 321 322 321 320 324 319 320 316
164 142 162 250 282 280 268 252 169 170 281 260 251 258 272 291 294 297 296 295 295 299 299 299 305 309 295 287 292 303 316 315 316 311 321 317 314 317
175 153 222 271 300 277 281 200 178 214 248 255 249 258 282 288 291 293 298 305 305 309 310 300 285 287 285 284 285 293 299 294 300 305 311 310 307 306
168 217 245 258 306 298 234 229 249 258 263 262 266 278 282 283 281 301 304 310 314 313 310 309 297 286 289 284 281 282 291 296 298 308 307 309 310 308
212 237 261 272 289 282 247 242 243 259 269 265 265 268 277 290 295 293 291 291 302 304 304 306 314 301 297 301 285 283 291 305 307 312 311 300 297 308
250 264 266 282 285 274 256 246 251 255 256 257 264 271 278 281 292 299 298 299 298 299 296 297 307 303 302 295 307 298 312 303 304 308 299 293 290 301
250 256 267 267 265 265 257 258 258 262 262 264 269 277 285 293 288 291 306 302 298 295 301 307 305 305 300 305 302 302 305 289 285 289 296 300 306 309
223 233 250 254 251 240 251 261 275 281 286 284 283 289 292 289 296 300 295 293 296 295 306 298 303 304 302 306 296 301 302 304 295 281 295 293 295 301
227 234 238 245 247 242 254 257 266 268 273 279 285 290 289 288 287 292 297 312 313 304 299 306 310 311 311 303 294 298 304 309 307 300 293 287 280 286
221 226 227 234 239 247 252 251 256 264 276 282 278 281 284 289 295 301 304 307 301 304 305 304 308 304 295 290 296 301 309 313 315 311 302 302 295 296